STARLINK-36177, 66932

Orbit data source: Space-Track

STARLINK-36177, 66932 is a payload satellite owned by SpaceX/Seattle (US) in LEO that was launched on Sun, 07 Dec 2025 UTC via an FALCON 9 launch vehicle from the Air Force Western Test Range (AFWTR). Payload-class satellites include a variety of spacecraft equipped with specific instruments for various scientific and technological missions. These include communications satellites like Starlink; space stations such as the ISS; scientific satellites like the Hubble; Earth observation satellites from companies like Planet Labs, Umbra, and HawkEye 360; GPS; miniature CubeSats for education and research; and military/defense satellites.

Loading next visibility...
Identifier
66932, 2025-286H
Orbit
LEO
Country
Flag of USUS
Related business
Manufacturer
SpaceX/Seattle
Mission
Operational Commercial Communications
Bus & Motor
STARLINK V2MO, Unknown motor
Mass
575 kg wet, ~530 kg dry
Launch date (UTC)
2025-12-07 (6 months ago)
Launch vehicle
FALCON 9
Launch site
Air Force Western Test Range (AFWTR)
Object type
Payload
Rocket body
Debris
Shape & HBR
Box + 2 Pan, 17.7 m
Radar Cross Section
36.964 m², Large (>1 m²)

Expand to show TLE details & history
Last TLE update: 11 hours ago

TLE from 11 hours ago
0 STARLINK-36177
1 66932U 25286H   26171.43392212  .00021048  00000-0  63199-3 0  9998
2 66932  53.1577 240.0668 0000897  86.1459 273.9646 15.34416709 31167
Epoch: 2026-06-20T10:24Z
TLE epoch observation values (Epoch: 2026-06-20T10:24:50.871Z)
Latitude
-0.00001°
Longitude
175.20622°
Altitude
463.512 km
Speed
7.636 km/s
True Right ascension
16h 00m 16s
True Declination
0° 00' 00"
Sunlit
Object was in full shadow at epoch
Visualization orbit readout
Latitude
Unknown
Longitude
Unknown
Altitude
Unknown
Speed
Unknown
Apparent Right ascension
Unknown
Apparent Declination
Unknown
Sunlit
N/A
Visualization observer readout
Local Sidereal Time
08:32:48
Azimuth
Unknown
Elevation
Unknown
Doppler factor
Unknown
Orbital elements
Apogee altitude
463.524 km
Perigee altitude
462.297 km
Semi-major axis
6,841.048 km
Eccentricity
0.00009
Inclination
53.1577°
RAAN
240.0668°
Arg. of periapsis
86.1459°
True anomaly
273.95435°
Mean anomaly
273.9646°
Eccentric anomaly
273.95947°
Mean motion
3.83583 °/min
Orbital period
93.85 mins
BSTAR
0.00063199
Loading maneuver chart data...
Computing Atmospheric mass density...
Loading historical data...
Loading historical data...
Loading historical data...
Loading historical data...
Loading historical data...
Loading historical data...
Loading historical data...

Documentation

Showing up to 5 results
|